SCP
0 0 0 0 0 0 0 0 0 0 0 0 0 0 0 0 0 0 0 0 0 0 0 0 0 0 0 0 0 0 0 0 0 0 0 -0 0 0 0 0 0 0 0
0 0 0 0 0 0 0 0 0 0 0 0 0 0 0 0 0 0 0 0 0 -0 -0 -0 0 0 0 0 0 0 0 0 0 0 0 0 0 0 0 0 0 0 0
0 0 0 0 0 0 0 0 0 0 0 0 0 0 0 0 0 0 0 0 0 0 0 0 0 0 0 0 0 0 0 0 0 0 0 0 0 0 0 0 0 0 0
0 0 0 0 0 0 0 0 0 0 0 0 0 0 0 0 0 0 0 0 0 0 0 0 0 0 0 0 0 0 0 0 0 0 0 0 0 0 0 0 0 0 0
0 0 0 0 0 0 0 0 0 0 0 0 0 0 0 0 0 0 0 0 0 0 0 0 0 -0 0 -0 -0 0 -0 0 0 0 0 0 0 0 0 0 0 0 0
0 0 0 0 0 0 0 0 0 0 0 0 0 0 0 0 0 0 0 0 0 0 0 0 0 0 0 0 0 -0 -0 -0 0 0 0 0 0 0 -0 -0 0 0 0
0 0 0 0 0 0 0 0 0 0 0 0 0 0 0 0 0 0 0 0 0 0 -0 -0 -0 0 0 0 0 0 0 -0 -0 -0 0 0 0 0 0 0 0 0 0
0 0 0 0 0 0 0 0 0 0 0 0 0 0 0 0 0 0 0 0 0 0 -0 -0 -0 0 0 0 0 0 0 0 0 0 0 0 0 0 0 0 0 0 0
0 0 0 0 0 0 0 0 0 0 0 0 0 0 0 0 0 0 0 0 0 0 0 0 0 0 -0 0 0 0 0 0 0 0 0 0 0 0 0 0 0 0 0
0 0 0 0 0 0 0 0 0 0 0 0 0 0 0 0 0 0 0 0 0 0 -0 0 0 0 0 0 0 0 0 0 0 0 0 0 0 0 0 0 0 0 -0
0 0 0 0 0 0 0 0 0 0 0 0 0 0 0 0 0 0 0 0 0 0 0 0 0 0 0 0 0 0 0 0 0 0 0 0 0 0 0 0 0 -0 -0
0 0 0 0 0 0 0 0 0 0 0 -0 0 0 0 0 0 0 0 0 0 0 0 0 0 0 0 0 0 0 0 0 0 0 0 0 0 0 -0 0 0 -0 -0
0 0 0 0 0 0 0 0 0 0 0 0 0 0 0 0 0 0 0 0 0 0 0 0 0 0 0 0 0 -0 0 0 0 0 0 0 0 0 0 0 0 0 0
0 0 0 0 0 0 0 0 0 0 0 0 0 0 0 0 0 0 0 0 0 0 0 0 0 0 0 -0 0 0 0 0 0 0 0 0 0 0 0 0 0 0 0
0 0 0 0 0 0 0 0 0 0 0 0 0 0 0 0 0 0 0 0 0 0 0 0 0 0 -0 0 0 0 0 0 0 0 0 0 0 0 0 0 0 0 0
0 0 0 0 0 0 0 0 0 0 0 0 0 0 0 0 0 -0 0 0 0 0 0 0 0 -0 0 0 0 0 0 0 0 0 0 0 0 0 0 0 0 0 0
0 0 0 0 0 0 0 0 0 0 0 0 0 0 0 0 0 0 0 -0 0 0 0 -0 -0 -0 0 0 0 0 0 0 0 0 -0 0 0 0 0 0 0 0 0
0 0 0 0 0 0 0 0 0 0 0 0 0 0 0 -0 0 0 0 -0 -0 -0 -0 -0 -0 -0 -0 0 0 0 0 0 0 0 0 0 0 0 -0 0 0 0 0
0 0 0 0 0 0 0 0 0 -0 0 0 0 0 0 0 0 -0 -0 0 0 -0 -0 -0 0 0 0 0 0 0 0 0 0 0 0 0 0 0 -0 0 0 0 -0
0 0 0 0 0 0 0 0 0 0 -0 0 0 0 0 0 -0 0 -0 0 0 -0 -0 -0 0 0 0 0 -0 -0 0 0 0 -0 0 0 0 0 -0 -0 0 -0 -0
0 0 0 0 0 0 0 0 0 0 0 -0 0 0 0 -0 0 0 0 -0 0 -0 -0 -0 0 -0 -0 -0 0 -0 -0 -0 0 -0 0 0 0 0 0 0 0 0 0
0 0 0 0 0 0 0 0 0 0 0 0 -0 0 0 -0 -0 0 0 0 0 0 -0 0 0 -0 -0 -0 -0 -0 -0 -0 -0 -0 -0 -0 -0 -0 0 0 0 0 0
-0 0 0 0 0 0 0 0 0 0 0 0 -0 -0 -0 0 -0 -0 0 0 0 0 0 -0 0 -0 -0 0 -0 -0 -0 -0 0 -0 0 0 -0 -0 0 -0 -0 0 0
0 0 0 0 0 0 0 0 0 0 0 0 -0 0 0 -0 -0 -0 0 -0 0 0 0 0 0 0 0 0 0 0 0 -0 0 0 0 0 -0 -0 0 -0 0 0 0
0 0 0 0 0 0 0 0 0 0 0 0 0 0 0 0 0 -0 -0 0 0 0 0 0 0 0 0 0 0 0 0 0 0 0 0 0 0 0 0 0 0 0 0
0 0 0 0 0 0 0 0 0 0 0 0 0 0 0 0 0 0 -0 0 -0 0 -0 0 0 0 0 0 0 0 0 0 0 0 0 0 -0 0 0 0 0 0 0
Wind_Speed_500mb
27 24 19 10 13 12 13 14 26 34 28 25 31 28 23 24 24 28 31 29 32 36 37 37 33 29 32 35 35 33 33 32 29 33 42 39 47 32 49 37 44 41 39
27 17 20 8 13 10 9 17 31 38 29 29 29 35 28 24 26 29 28 31 34 33 31 35 32 31 35 33 34 35 30 30 27 36 33 32 39 35 37 52 45 44 39
27 30 19 11 11 11 12 16 31 30 34 31 28 28 26 25 23 27 29 29 34 35 31 40 33 28 25 24 28 27 28 31 27 27 28 14 15 20 33 39 41 38 43
31 26 15 14 9 10 16 15 17 28 38 28 23 25 28 25 27 26 29 27 36 39 40 32 38 30 22 21 19 17 16 16 21 21 25 31 39 18 11 26 36 38 38
23 20 15 7 3 6 18 13 12 27 36 26 26 22 22 20 23 25 24 29 37 43 41 30 38 37 34 24 19 17 19 13 18 20 21 19 18 19 12 21 21 23 29
23 23 9 5 3 12 17 24 15 24 27 25 27 28 26 24 26 24 25 26 29 36 38 37 41 40 41 25 15 16 14 13 7 17 14 8 8 4 7 14 12 23 34
22 18 11 3 16 19 19 15 20 23 25 29 30 27 28 24 23 28 18 22 27 30 35 41 41 39 37 31 21 14 17 13 12 10 5 7 6 7 2 14 22 30 23
21 20 8 13 17 24 14 13 24 29 20 25 26 34 31 30 21 20 22 22 26 23 27 32 35 34 30 32 34 30 26 28 19 18 15 20 6 6 18 32 26 22 18
15 12 15 11 16 19 12 14 22 16 21 25 24 26 30 25 27 24 24 25 31 18 24 25 31 30 31 33 33 29 30 25 26 26 23 25 29 27 24 20 26 11 13
13 10 6 10 13 14 13 11 15 15 18 20 21 29 21 27 21 23 14 18 25 23 20 24 24 26 23 27 31 35 32 33 31 25 28 25 35 31 27 25 19 21 23
8 11 15 17 13 17 10 12 16 17 19 21 25 33 32 23 14 14 20 25 26 20 18 19 17 21 25 28 33 28 27 25 27 26 23 28 28 29 26 24 15 22 19
16 20 23 17 17 8 12 13 18 16 16 23 20 33 26 27 18 19 17 20 32 13 20 15 16 23 29 29 20 19 20 18 23 21 19 17 18 19 18 11 20 20 15
10 14 22 13 3 5 10 13 14 11 14 20 24 27 24 32 26 23 29 22 28 20 14 9 8 10 18 14 21 24 25 26 18 16 12 13 12 19 23 22 20 22 14
17 16 12 7 7 0 6 11 11 10 14 22 16 20 21 21 18 21 19 22 27 25 26 20 16 17 10 4 14 18 21 25 26 28 19 18 20 25 23 19 15 13 14
17 23 22 15 15 5 7 12 9 9 15 16 17 20 17 13 14 21 23 17 16 21 26 26 22 19 14 13 15 23 23 19 23 22 31 32 29 26 29 28 25 15 8
26 22 19 18 13 8 7 11 12 13 13 19 14 14 16 18 17 14 18 20 12 8 11 20 17 11 18 16 13 12 19 20 13 17 15 22 23 18 20 19 20 20 19
26 23 22 16 9 12 7 15 16 18 17 13 14 16 15 17 15 20 16 22 19 10 9 9 11 16 14 14 15 17 16 17 21 19 17 15 10 16 13 9 13 12 12
24 23 21 21 21 19 14 20 14 17 19 15 9 10 17 11 8 16 16 24 17 12 6 7 8 11 11 7 10 11 12 13 7 6 7 10 11 11 10 13 9 15 15
19 18 21 20 24 27 24 22 20 18 24 16 12 16 19 12 15 20 15 13 15 12 4 3 6 10 11 7 4 4 3 5 7 11 5 3 8 11 13 10 9 5 9
21 19 16 19 22 22 28 23 23 20 23 19 15 16 17 17 21 23 27 19 11 17 11 14 13 16 17 11 10 11 8 21 1 14 12 16 13 13 11 13 15 17 17
27 29 21 19 26 28 26 26 25 25 26 26 23 22 20 18 15 19 28 22 11 11 11 6 20 20 17 19 15 17 15 13 3 15 5 5 15 18 17 16 12 14 4
40 34 30 28 29 26 31 27 30 27 30 26 24 24 29 21 21 20 24 25 22 20 20 21 17 8 23 26 12 15 18 16 14 6 6 14 25 28 19 11 19 5 6
46 49 32 44 30 29 31 25 28 26 26 35 31 30 32 24 25 24 26 29 27 27 28 23 19 11 15 19 15 19 13 19 21 19 22 28 25 22 7 12 9 7 7
57 53 48 48 47 31 35 35 23 24 26 35 38 33 32 28 31 24 22 15 22 21 20 21 11 9 13 21 21 10 9 17 16 21 22 22 19 18 14 11 10 7 8
54 58 54 52 37 37 37 37 28 29 28 32 35 35 33 29 29 26 28 31 30 23 20 27 24 13 17 17 22 28 31 29 26 28 29 28 28 34 30 17 12 11 14
58 63 67 63 47 34 31 25 32 40 33 30 34 36 30 31 29 24 30 28 36 27 28 30 27 25 29 32 30 29 30 28 28 29 29 24 25 29 21 18 16 18 18
Wind_Direction_500mb
141 132 137 68 39 356 3 350 346 349 4 0 355 344 345 334 332 342 332 330 339 340 338 327 313 292 297 295 304 299 285 276 275 277 276 268 268 267 241 243 248 246 250
138 136 126 143 12 353 9 351 350 355 349 2 359 358 352 357 358 326 341 345 336 342 342 325 315 302 290 280 282 284 289 287 272 269 284 281 280 251 263 245 242 240 232
144 146 134 84 31 18 352 326 344 355 358 359 1 358 359 355 329 341 350 337 345 342 341 343 340 331 315 299 289 285 283 284 281 254 255 274 257 281 240 229 241 234 234
162 148 133 88 45 349 335 316 332 357 357 356 360 353 358 342 347 338 349 353 344 353 353 343 349 334 340 335 322 310 306 302 295 281 262 258 259 285 306 235 249 242 233
144 103 88 39 358 18 4 339 321 354 358 355 336 344 341 353 339 338 348 345 342 353 350 357 5 9 356 321 312 312 309 305 310 288 287 275 265 248 287 267 201 181 192
118 112 105 162 38 19 26 343 24 11 353 344 344 341 336 348 346 341 351 344 356 347 358 2 359 359 0 355 342 312 319 321 254 280 302 293 331 260 243 212 197 177 161
134 111 105 178 42 16 20 357 18 360 355 3 355 348 352 349 350 328 339 351 349 346 350 355 360 3 20 14 19 42 8 331 288 310 44 52 69 334 51 172 138 142 155
120 136 99 44 14 8 8 358 357 354 354 359 3 355 0 353 341 332 3 356 338 343 352 355 359 8 23 35 54 45 55 54 70 87 70 68 66 80 96 132 127 122 120
149 87 72 33 6 358 5 5 357 358 354 358 343 353 338 347 350 8 6 345 346 8 342 356 3 14 37 48 45 42 42 47 68 71 78 62 72 88 103 104 104 103 142
125 133 19 2 39 13 359 21 1 348 351 357 342 339 332 337 3 351 357 353 344 352 358 16 3 18 28 34 45 41 42 48 53 65 56 75 79 89 90 87 116 88 125
111 85 41 92 45 360 29 17 353 349 350 354 336 343 344 345 340 1 352 348 347 0 33 10 3 35 27 36 37 35 25 44 51 55 64 60 74 73 69 68 80 117 125
7 50 45 29 20 30 34 359 340 344 357 331 352 344 6 17 21 10 17 358 357 56 40 10 44 41 40 22 28 43 43 54 47 47 57 68 77 69 88 114 94 93 110
20 15 337 338 15 356 357 341 337 345 319 345 354 348 21 12 35 15 17 19 15 25 22 8 25 10 23 22 44 52 46 59 61 55 70 85 76 87 80 76 90 101 75
19 335 331 66 27 262 21 341 340 339 325 342 346 354 26 16 16 20 10 11 21 28 27 25 75 37 359 41 87 67 61 55 60 45 72 81 90 84 80 79 76 102 90
5 1 348 344 341 99 9 348 321 316 355 339 355 343 7 19 353 352 0 13 12 8 24 40 61 45 2 110 94 83 74 72 82 60 65 72 84 74 65 63 63 53 74
359 351 345 332 346 339 346 315 310 304 290 335 323 323 357 335 339 326 352 352 4 36 34 33 35 18 59 80 81 89 77 71 80 74 68 71 69 57 55 54 60 49 42
346 352 345 342 318 334 333 309 297 305 290 333 326 329 350 322 325 334 348 321 335 359 79 48 23 25 43 60 72 77 75 66 50 42 53 82 29 44 29 31 36 24 12
340 340 333 328 314 301 297 302 287 295 300 301 318 305 313 311 335 339 318 326 340 348 82 36 39 353 12 41 81 68 85 78 106 60 57 11 5 1 0 16 42 21 357
337 323 311 311 295 296 306 296 284 276 284 286 298 277 328 331 322 338 314 317 312 326 303 244 296 305 313 319 323 73 56 336 9 324 259 273 327 335 320 320 332 323 334
314 298 298 291 288 283 303 300 282 273 276 285 275 274 301 307 304 325 345 325 308 320 300 298 288 270 306 285 264 265 312 358 345 350 238 262 317 330 321 315 299 293 286
311 290 281 284 276 271 279 290 286 280 272 269 258 262 283 299 282 290 325 332 304 284 307 305 254 272 267 272 287 256 267 299 238 351 256 317 353 341 324 324 337 330 2
324 304 277 279 293 261 257 269 280 267 271 260 268 266 273 278 279 303 305 316 319 297 308 293 295 281 240 252 299 295 262 268 268 330 275 308 329 330 325 336 356 354 71
339 326 297 295 283 263 246 259 283 277 266 265 252 262 264 271 267 275 290 299 303 310 288 291 302 306 265 252 282 317 296 257 261 271 272 294 306 315 347 349 12 32 14
336 333 327 310 292 288 266 260 274 292 265 270 259 264 258 256 265 272 282 307 301 301 313 330 273 295 273 270 271 271 307 310 263 257 266 278 290 289 287 299 303 321 323
334 337 333 328 310 279 270 270 274 283 283 263 261 263 265 261 260 260 275 277 278 291 296 306 287 277 279 249 225 246 282 267 255 258 267 264 277 289 285 286 280 301 295
346 341 336 337 323 294 278 267 273 273 279 267 267 264 256 259 265 256 269 279 281 266 272 265 268 263 255 263 275 283 278 270 265 268 273 258 262 283 277 275 264 278 286
Wind_Speed_850mb
27 24 19 10 13 12 13 14 26 34 28 25 31 28 23 24 24 28 31 29 32 36 37 37 33 29 32 35 35 33 33 32 29 33 42 39 47 32 49 37 44 41 39
27 17 20 8 13 10 9 17 31 38 29 29 29 35 28 24 26 29 28 31 34 33 31 35 32 31 35 33 34 35 30 30 27 36 33 32 39 35 37 52 45 44 39
27 30 19 11 11 11 12 16 31 30 34 31 28 28 26 25 23 27 29 29 34 35 31 40 33 28 25 24 28 27 28 31 27 27 28 14 15 20 33 39 41 38 43
31 26 15 14 9 10 16 15 17 28 38 28 23 25 28 25 27 26 29 27 36 39 40 32 38 30 22 21 19 17 16 16 21 21 25 31 39 18 11 26 36 38 38
23 20 15 7 3 6 18 13 12 27 36 26 26 22 22 20 23 25 24 29 37 43 41 30 38 37 34 24 19 17 19 13 18 20 21 19 18 19 12 21 21 23 29
23 23 9 5 3 12 17 24 15 24 27 25 27 28 26 24 26 24 25 26 29 36 38 37 41 40 41 25 15 16 14 13 7 17 14 8 8 4 7 14 12 23 34
22 18 11 3 16 19 19 15 20 23 25 29 30 27 28 24 23 28 18 22 27 30 35 41 41 39 37 31 21 14 17 13 12 10 5 7 6 7 2 14 22 30 23
21 20 8 13 17 24 14 13 24 29 20 25 26 34 31 30 21 20 22 22 26 23 27 32 35 34 30 32 34 30 26 28 19 18 15 20 6 6 18 32 26 22 18
15 12 15 11 16 19 12 14 22 16 21 25 24 26 30 25 27 24 24 25 31 18 24 25 31 30 31 33 33 29 30 25 26 26 23 25 29 27 24 20 26 11 13
13 10 6 10 13 14 13 11 15 15 18 20 21 29 21 27 21 23 14 18 25 23 20 24 24 26 23 27 31 35 32 33 31 25 28 25 35 31 27 25 19 21 23
8 11 15 17 13 17 10 12 16 17 19 21 25 33 32 23 14 14 20 25 26 20 18 19 17 21 25 28 33 28 27 25 27 26 23 28 28 29 26 24 15 22 19
16 20 23 17 17 8 12 13 18 16 16 23 20 33 26 27 18 19 17 20 32 13 20 15 16 23 29 29 20 19 20 18 23 21 19 17 18 19 18 11 20 20 15
10 14 22 13 3 5 10 13 14 11 14 20 24 27 24 32 26 23 29 22 28 20 14 9 8 10 18 14 21 24 25 26 18 16 12 13 12 19 23 22 20 22 14
17 16 12 7 7 0 6 11 11 10 14 22 16 20 21 21 18 21 19 22 27 25 26 20 16 17 10 4 14 18 21 25 26 28 19 18 20 25 23 19 15 13 14
17 23 22 15 15 5 7 12 9 9 15 16 17 20 17 13 14 21 23 17 16 21 26 26 22 19 14 13 15 23 23 19 23 22 31 32 29 26 29 28 25 15 8
26 22 19 18 13 8 7 11 12 13 13 19 14 14 16 18 17 14 18 20 12 8 11 20 17 11 18 16 13 12 19 20 13 17 15 22 23 18 20 19 20 20 19
26 23 22 16 9 12 7 15 16 18 17 13 14 16 15 17 15 20 16 22 19 10 9 9 11 16 14 14 15 17 16 17 21 19 17 15 10 16 13 9 13 12 12
24 23 21 21 21 19 14 20 14 17 19 15 9 10 17 11 8 16 16 24 17 12 6 7 8 11 11 7 10 11 12 13 7 6 7 10 11 11 10 13 9 15 15
19 18 21 20 24 27 24 22 20 18 24 16 12 16 19 12 15 20 15 13 15 12 4 3 6 10 11 7 4 4 3 5 7 11 5 3 8 11 13 10 9 5 9
21 19 16 19 22 22 28 23 23 20 23 19 15 16 17 17 21 23 27 19 11 17 11 14 13 16 17 11 10 11 8 21 1 14 12 16 13 13 11 13 15 17 17
27 29 21 19 26 28 26 26 25 25 26 26 23 22 20 18 15 19 28 22 11 11 11 6 20 20 17 19 15 17 15 13 3 15 5 5 15 18 17 16 12 14 4
40 34 30 28 29 26 31 27 30 27 30 26 24 24 29 21 21 20 24 25 22 20 20 21 17 8 23 26 12 15 18 16 14 6 6 14 25 28 19 11 19 5 6
46 49 32 44 30 29 31 25 28 26 26 35 31 30 32 24 25 24 26 29 27 27 28 23 19 11 15 19 15 19 13 19 21 19 22 28 25 22 7 12 9 7 7
57 53 48 48 47 31 35 35 23 24 26 35 38 33 32 28 31 24 22 15 22 21 20 21 11 9 13 21 21 10 9 17 16 21 22 22 19 18 14 11 10 7 8
54 58 54 52 37 37 37 37 28 29 28 32 35 35 33 29 29 26 28 31 30 23 20 27 24 13 17 17 22 28 31 29 26 28 29 28 28 34 30 17 12 11 14
58 63 67 63 47 34 31 25 32 40 33 30 34 36 30 31 29 24 30 28 36 27 28 30 27 25 29 32 30 29 30 28 28 29 29 24 25 29 21 18 16 18 18
Wind_Direction_850mb
141 132 137 68 39 356 3 350 346 349 4 0 355 344 345 334 332 342 332 330 339 340 338 327 313 292 297 295 304 299 285 276 275 277 276 268 268 267 241 243 248 246 250
138 136 126 143 12 353 9 351 350 355 349 2 359 358 352 357 358 326 341 345 336 342 342 325 315 302 290 280 282 284 289 287 272 269 284 281 280 251 263 245 242 240 232
144 146 134 84 31 18 352 326 344 355 358 359 1 358 359 355 329 341 350 337 345 342 341 343 340 331 315 299 289 285 283 284 281 254 255 274 257 281 240 229 241 234 234
162 148 133 88 45 349 335 316 332 357 357 356 360 353 358 342 347 338 349 353 344 353 353 343 349 334 340 335 322 310 306 302 295 281 262 258 259 285 306 235 249 242 233
144 103 88 39 358 18 4 339 321 354 358 355 336 344 341 353 339 338 348 345 342 353 350 357 5 9 356 321 312 312 309 305 310 288 287 275 265 248 287 267 201 181 192
118 112 105 162 38 19 26 343 24 11 353 344 344 341 336 348 346 341 351 344 356 347 358 2 359 359 0 355 342 312 319 321 254 280 302 293 331 260 243 212 197 177 161
134 111 105 178 42 16 20 357 18 360 355 3 355 348 352 349 350 328 339 351 349 346 350 355 360 3 20 14 19 42 8 331 288 310 44 52 69 334 51 172 138 142 155
120 136 99 44 14 8 8 358 357 354 354 359 3 355 0 353 341 332 3 356 338 343 352 355 359 8 23 35 54 45 55 54 70 87 70 68 66 80 96 132 127 122 120
149 87 72 33 6 358 5 5 357 358 354 358 343 353 338 347 350 8 6 345 346 8 342 356 3 14 37 48 45 42 42 47 68 71 78 62 72 88 103 104 104 103 142
125 133 19 2 39 13 359 21 1 348 351 357 342 339 332 337 3 351 357 353 344 352 358 16 3 18 28 34 45 41 42 48 53 65 56 75 79 89 90 87 116 88 125
111 85 41 92 45 360 29 17 353 349 350 354 336 343 344 345 340 1 352 348 347 0 33 10 3 35 27 36 37 35 25 44 51 55 64 60 74 73 69 68 80 117 125
7 50 45 29 20 30 34 359 340 344 357 331 352 344 6 17 21 10 17 358 357 56 40 10 44 41 40 22 28 43 43 54 47 47 57 68 77 69 88 114 94 93 110
20 15 337 338 15 356 357 341 337 345 319 345 354 348 21 12 35 15 17 19 15 25 22 8 25 10 23 22 44 52 46 59 61 55 70 85 76 87 80 76 90 101 75
19 335 331 66 27 262 21 341 340 339 325 342 346 354 26 16 16 20 10 11 21 28 27 25 75 37 359 41 87 67 61 55 60 45 72 81 90 84 80 79 76 102 90
5 1 348 344 341 99 9 348 321 316 355 339 355 343 7 19 353 352 0 13 12 8 24 40 61 45 2 110 94 83 74 72 82 60 65 72 84 74 65 63 63 53 74
359 351 345 332 346 339 346 315 310 304 290 335 323 323 357 335 339 326 352 352 4 36 34 33 35 18 59 80 81 89 77 71 80 74 68 71 69 57 55 54 60 49 42
346 352 345 342 318 334 333 309 297 305 290 333 326 329 350 322 325 334 348 321 335 359 79 48 23 25 43 60 72 77 75 66 50 42 53 82 29 44 29 31 36 24 12
340 340 333 328 314 301 297 302 287 295 300 301 318 305 313 311 335 339 318 326 340 348 82 36 39 353 12 41 81 68 85 78 106 60 57 11 5 1 0 16 42 21 357
337 323 311 311 295 296 306 296 284 276 284 286 298 277 328 331 322 338 314 317 312 326 303 244 296 305 313 319 323 73 56 336 9 324 259 273 327 335 320 320 332 323 334
314 298 298 291 288 283 303 300 282 273 276 285 275 274 301 307 304 325 345 325 308 320 300 298 288 270 306 285 264 265 312 358 345 350 238 262 317 330 321 315 299 293 286
311 290 281 284 276 271 279 290 286 280 272 269 258 262 283 299 282 290 325 332 304 284 307 305 254 272 267 272 287 256 267 299 238 351 256 317 353 341 324 324 337 330 2
324 304 277 279 293 261 257 269 280 267 271 260 268 266 273 278 279 303 305 316 319 297 308 293 295 281 240 252 299 295 262 268 268 330 275 308 329 330 325 336 356 354 71
339 326 297 295 283 263 246 259 283 277 266 265 252 262 264 271 267 275 290 299 303 310 288 291 302 306 265 252 282 317 296 257 261 271 272 294 306 315 347 349 12 32 14
336 333 327 310 292 288 266 260 274 292 265 270 259 264 258 256 265 272 282 307 301 301 313 330 273 295 273 270 271 271 307 310 263 257 266 278 290 289 287 299 303 321 323
334 337 333 328 310 279 270 270 274 283 283 263 261 263 265 261 260 260 275 277 278 291 296 306 287 277 279 249 225 246 282 267 255 258 267 264 277 289 285 286 280 301 295
346 341 336 337 323 294 278 267 273 273 279 267 267 264 256 259 265 256 269 279 281 266 272 265 268 263 255 263 275 283 278 270 265 268 273 258 262 283 277 275 264 278 286